User: anonymous   Login
Location: *
(46.4000°N, 12.6667°E)
Time: 15:46:53
(UTC+00:00)
Language:

Cosmos 1174 - Orbit

View from above orbital plane
View from above orbital plane
View from above satellite
View from above satellite

Ground track
Ground track

The orbit data is extracted from the following two-line orbital elements,

1 11765U 80030A   21164.18271127  .00000948  00000-0  58428-4 0  9996
2 11765  66.0859 261.7118 0540121 150.2093 213.0957 14.40350813116515
Epoch (UTC): 13 June 2021 04:23:06
Eccentricity: 0.0540121
inclination: 66.0859°
perigee height: 372 km
apogee height: 1143 km
right ascension of ascending node: 261.7118°
argument of perigee: 150.2093°
revolutions per day: 14.40350813
mean anomaly at epoch: 213.0957°
orbit number at epoch: 11651

The dashed part of the orbit path shows where the satellite is in the earth's shadow,  

DLR